Regional Weather Roundup
Issued by NWS

Home | Current Version | Previous Version | Graphics & Text | Print | Product List | Glossary On
Versions: 1 2 3 4 5 6 7 8 9 10 11 12 13 14 15 16 17 18 19 20 21 22 23 24 25 26 27 28 29 30 31 32 33 34 35 36 37 38 39 40 41 42 43 44 45 46 47 48 49 50
000
ASUS43 KIND 262159
RWRIN

WEATHER ROUNDUP FOR INDIANA
NATIONAL WEATHER SERVICE INDIANAPOLIS IN
500 PM EST FRI DEC 26 2014

NOTE: "FAIR" INDICATES FEW OR NO CLOUDS BELOW 12,000 FEET WITH NO
SIGNIFICANT WEATHER AND/OR OBSTRUCTIONS TO VISIBILITY.

* - STATION DOES NOT REPORT WEATHER SUCH AS PRECIPITATION OR FOG.

+ - STATION NOT QUALITY CONTROLLED BY THE NATIONAL WEATHER SERVICE.
    USE DATA WITH CAUTION...ESPECIALLY DEWPOINT AND RELATIVE
    HUMIDITY OBSERVATIONS.

INZ001>003-010>013-019-020-262300-
NORTHWEST INDIANA

CITY           SKY/WX    TMP DP  RH WIND       PRES   REMARKS
GARY /AIRPORT/ MOCLDY    52  37  58 SW7       30.03R
KNOX *+        CLOUDY    49  38  64 SW10      30.04S
VALPARAISO     NOT AVBL

$$

LMZ046-743>745-262300-
SOUTHERN LAKE MICHIGAN

STATION/POSITION TIME  TEMP WIND        PRES
                       AIR  DIR/SP/G
                 (UTC) (F)  (DEG/KT/KT) (MB)
MICHIGAN CITY    2100   50  190/  9/ 10   N/A

$$

INZ004-005-014>016-021>024-262300-
NORTH CENTRAL INDIANA

CITY           SKY/WX    TMP DP  RH WIND       PRES   REMARKS
ELKHART        PTCLDY    48  37  66 S5        30.05S
GOSHEN         PTCLDY    47  40  76 S8        30.05S
SOUTH BEND     MOCLDY    49  40  71 S6        30.05S
WARSAW +       PTCLDY    48  41  76 S5        30.07R

$$

INZ006>009-017-018-025>027-262300-
NORTHEAST INDIANA

CITY           SKY/WX    TMP DP  RH WIND       PRES   REMARKS
ANGOLA *+      CLEAR     45  39  81 S6        30.06S
FORT WAYNE     MOCLDY    46  40  79 S10       30.10R

$$

INZ028-029-035-036-043>045-051>053-262300-
WEST CENTRAL INDIANA

CITY           SKY/WX    TMP DP  RH WIND       PRES   REMARKS
GREENCASTLE +  MOCLDY    48  37  66 S6        30.10F
LAFAYETTE      PTCLDY    48  40  73 S7        30.07S
TERRE HAUTE    MOCLDY    50  41  71 S8        30.10S

$$

INZ030>032-037>040-046>048-054>057-064-065-262300-
CENTRAL INDIANA

CITY           SKY/WX    TMP DP  RH WIND       PRES   REMARKS
CP ATTERBURY + CLOUDY    50  39  66 MISG      30.13S
COLUMBUS       MOCLDY    50  39  66 S14       30.14S
INDIANAPOLIS   MOCLDY    49  40  71 S10       30.10S
-EAGLE CREEK   PTCLDY    50  40  68 S6        30.10R
KOKOMO *+      PTCLDY   N/A N/A N/A S10       30.08S
MT COMFORT *+  PTCLDY    48  36  61 S7        30.11S
SHELBYVILLE    MOCLDY    52  40  63 S14       30.11F

$$

INZ033-034-041-042-049-050-058-059-262300-
EAST CENTRAL INDIANA

CITY           SKY/WX    TMP DP  RH WIND       PRES   REMARKS
MUNCIE         PTCLDY    48  40  73 S8        30.11R

$$

INZ060-061-067>069-081>083-085>088-262300-
SOUTHWEST INDIANA

CITY           SKY/WX    TMP DP  RH WIND       PRES   REMARKS
EVANSVILLE     PTCLDY    56  42  59 S7        30.14F
HUNTINGBURG *+ PTCLDY    52  39  62 S8        30.16S

$$

INZ062-063-066-070>080-084-089>092-262300-
SOUTH CENTRAL AND SOUTHEAST INDIANA

CITY           SKY/WX    TMP DP  RH WIND       PRES   REMARKS
BLOOMINGTON    MOCLDY    52  41  66 S12       30.12S
SEYMOUR +      MOCLDY    54  41  62 S10       30.15S

$$



USA.gov is the U.S. government's official web portal to all federal, state and local government web resources and services.